Patterson, LA

1:01 AM CST on November 13, 2019 (GMT -0600)
Williams Memorial

Weather History for KPTN - September, 2019

Change the Weather History Date:

Tuesday, September 10, 2019

  Actual Average Record
Temperature  
Mean Temperature 84 °F -  
Max Temperature 91 °F 85 °F 91 °F (2004)
Min Temperature 77 °F 70 °F 60 °F (2011)
Cooling Degree Days 19    
Growing Degree Days 34 (Base 50)    
Moisture  
Dew Point 76 °F    
Average Humidity 80    
Maximum Humidity 97    
Minimum Humidity 59    
Precipitation  
Precipitation 0.00 in - - ()
Sea Level Pressure  
Sea Level Pressure 30.11 in    
Wind  
Wind Speed 4 mph (ESE)    
Max Wind Speed 10 mph    
Max Gust Speed -    
Visibility 9 miles    
Events Thunderstorm    
Averages and records for this station are not official NWS values.
T = Trace of Precipitation, MM = Missing Value Source: NWS Daily Summary

Daily Weather History Graph

Daily Weather History Graph

Search for Another Location

Airport or City:

Astronomy

Sep. 10, 2019 Rise Set
Actual Time 6:47 AM CDT 7:16 PM CDT
Civil Twilight 6:23 AM CDT 7:40 PM CDT
Nautical Twilight 5:55 AM CDT 8:09 PM CDT
Astronomical Twilight 5:26 AM CDT 8:37 PM CDT
Moon 5:36 PM CDT (9/10) 3:32 AM CDT (9/10)
Length of Visible Light 13h 17m
Length of Day
12h 29m
Waxing Gibbous, 89% of the Moon is Illuminated
Sep 10
Waxing Gibbous
Sep 13
Full
Sep 21
Last Quarter
Sep 28
New
Oct 5
First Quarter

Hourly Weather History & Observations

Time (CDT) Temp. Heat Index Dew Point Humidity Pressure Visibility Wind Dir Wind Speed Gust Speed Precip Events Conditions
12:56 AM 79.0 °F - 77.0 °F 94% 30.09 in 4.0 mi Calm Calm - N/A   Clear
1:56 AM 78.1 °F - 77.0 °F 96% 30.07 in 7.0 mi NNE 3.5 mph - N/A   Clear
2:56 AM 78.1 °F - 77.0 °F 96% 30.07 in 10.0 mi NE 4.6 mph - N/A   Scattered Clouds
4:56 AM 77.0 °F - 75.9 °F 96% 30.07 in 7.0 mi Calm Calm - N/A   Clear
5:56 AM 77.0 °F - 75.9 °F 96% 30.09 in 8.0 mi NE 5.8 mph - N/A   Clear
6:56 AM 77.0 °F - 75.9 °F 96% 30.11 in 6.0 mi ENE 3.5 mph - N/A   Clear
7:56 AM 79.0 °F - 78.1 °F 97% 30.13 in 10.0 mi NE 5.8 mph - N/A   Clear
8:56 AM 82.9 °F 92.8 °F 78.1 °F 85% 30.14 in 10.0 mi East 5.8 mph - N/A   Clear
9:56 AM 87.1 °F 98.8 °F 77.0 °F 72% 30.15 in 10.0 mi ESE 5.8 mph - N/A   Partly Cloudy
10:56 AM 89.1 °F 100.2 °F 75.9 °F 65% 30.14 in 10.0 mi East 9.2 mph - N/A   Partly Cloudy
11:56 AM 88.0 °F 98.5 °F 75.9 °F 67% 30.14 in 10.0 mi East 8.1 mph - N/A   Mostly Cloudy
12:56 PM 91.0 °F 104.2 °F 77.0 °F 63% 30.14 in 10.0 mi SE 10.4 mph - N/A   Partly Cloudy
1:56 PM 89.1 °F 99.1 °F 75.0 °F 63% 30.14 in 10.0 mi SE 4.6 mph - N/A   Overcast
2:56 PM 91.9 °F 103.9 °F 75.9 °F 59% 30.11 in 10.0 mi SSE 9.2 mph - N/A   Scattered Clouds
3:56 PM 90.0 °F 101.3 °F 75.9 °F 63% 30.11 in 10.0 mi South 8.1 mph - N/A   Partly Cloudy
4:56 PM 89.1 °F 101.4 °F 77.0 °F 67% 30.10 in 10.0 mi SE 6.9 mph - N/A   Clear
5:21 PM 87.8 °F 99.7 °F 77.0 °F 70% 30.09 in 10.0 mi South 3.5 mph - N/A Thunderstorm Thunderstorm
5:56 PM 87.1 °F 98.8 °F 77.0 °F 72% 30.10 in 10.0 mi South 5.8 mph - N/A   Partly Cloudy
6:56 PM 84.9 °F 94.1 °F 75.9 °F 74% 30.10 in 10.0 mi SSE 4.6 mph - N/A   Scattered Clouds
7:56 PM 82.0 °F 89.4 °F 75.9 °F 82% 30.10 in 9.0 mi SE 4.6 mph - N/A   Partly Cloudy
8:56 PM 81.0 °F 87.3 °F 75.9 °F 85% 30.12 in 10.0 mi ESE 4.6 mph - N/A   Partly Cloudy
9:56 PM 80.1 °F 85.8 °F 77.0 °F 90% 30.13 in 10.0 mi ESE 4.6 mph - N/A   Clear
10:56 PM 79.0 °F - 75.9 °F 90% 30.14 in 10.0 mi Calm Calm - N/A   Clear
11:56 PM 78.1 °F - 75.9 °F 93% 30.14 in 10.0 mi Calm Calm - N/A   Clear